Погода в Камбарке

Россия / Удмуртская Республика     56°15′57″N   54°11′36″E
темп.,
°C
ветер,
м/с
пор.,
м/с
влажн.,
%
обл.,
%
осадки,
мм/ч
давл.,
гПа
погр.,
м
12 мая, ср
ср1201:00+17сз004974 0.0 102711
04:00+14св11595 0.0 102811
07:00+18св12525 0.0 1029155
10:00+23в21395 0.0 1029788
13:00+26вюв21324 0.0 10282154
16:00+26ююв223225 0.0 10272421
19:00+23ююв124754 0.0 102714
22:00+18ююв115316 0.0 102711
13 мая, чт
чт1301:00+16вюв11630 0.0 102811
04:00+15юв11670 0.0 102811
07:00+19юв12560 0.0 1028148
10:00+25ююв22390 0.0 1028893
13:00+27ю332915 0.0 10272181
16:00+27ююз23275 0.0 10262252
19:00+23ю114325 0.0 102611
22:00+18юв115226 0.0 102611
14 мая, пт
пт1401:00+17ююв22585 0.0 102611
04:00+15ююв22654 0.0 102612
07:00+19ююв25535 0.0 1026186
10:00+24ю46356 0.0 1026811
13:00+27ююз46285 0.1 10241736
16:00+28ююз56284 0.1 10241938
19:00+24ююз38465 0.0 1023281
22:00+19ююз386191 0.0 1023129
15 мая, сб
сб1501:00+17ююз256697 0.0 102377
04:00+16ююз2364100 0.0 102353
07:00+19ю266189 0.3 1023179
10:00+25ююз57336 0.4 1022884
13:00+28юз5727100 0.0 10211497
16:00+29юз572750 0.0 10211669
19:00+25ююз384430 0.0 1020239
22:00+19ююз22575 0.0 102028
16 мая, вс
вс1601:00+17ююз236049 0.0 102037
04:00+16ю22595 0.0 102028
07:00+20ююз36495 0.0 1020184
10:00+26ююз46351 0.0 1019680
13:00+30ююз57255 0.0 10192674
16:00+30юз57255 0.0 10183256
19:00+25юз254556 0.0 1017111
22:00+20ю3556100 0.0 101774